TimeEDT,TemperatureF,Dew PointF,Humidity,Sea Level PressureIn,VisibilityMPH,Wind Direction,Wind SpeedMPH,Gust SpeedMPH,PrecipitationIn,Events,Conditions,WindDirDegrees,DateUTC
12:53 AM,82.0,73.0,74,29.94,10.0,Calm,Calm,-,N/A,,Mostly Cloudy,0,2013-08-31 04:53:00
1:53 AM,81.0,75.0,82,29.91,10.0,South,3.5,-,N/A,,Clear,190,2013-08-31 05:53:00
2:53 AM,81.0,75.9,85,29.89,10.0,SSW,5.8,-,N/A,,Clear,210,2013-08-31 06:53:00
3:53 AM,82.0,77.0,85,29.89,10.0,SW,5.8,-,N/A,,Clear,220,2013-08-31 07:53:00
4:53 AM,81.0,75.9,85,29.89,10.0,SSW,4.6,-,N/A,,Clear,200,2013-08-31 08:53:00
5:53 AM,81.0,77.0,88,29.90,10.0,SW,3.5,-,N/A,,Clear,230,2013-08-31 09:53:00
6:53 AM,81.0,77.0,88,29.92,10.0,SW,3.5,-,N/A,,Partly Cloudy,220,2013-08-31 10:53:00
7:53 AM,81.0,77.0,88,29.93,10.0,South,6.9,-,N/A,,Partly Cloudy,190,2013-08-31 11:53:00
8:14 AM,81.0,78.1,91,29.94,10.0,South,10.4,-,N/A,Thunderstorm,Scattered Clouds,190,2013-08-31 12:14:00
8:33 AM,81.0,75.9,85,29.94,10.0,SSW,18.4,24.2,N/A,,Mostly Cloudy,210,2013-08-31 12:33:00
8:53 AM,79.0,73.9,84,29.96,4.0,West,12.7,-,0.02,Rain-Thunderstorm,Light Thunderstorms and Rain,270,2013-08-31 12:53:00
9:10 AM,78.1,73.0,84,29.96,7.0,West,10.4,-,0.02,Rain-Thunderstorm,Light Rain,260,2013-08-31 13:10:00
9:49 AM,78.8,71.6,78,29.97,10.0,Variable,4.6,-,0.03,,Mostly Cloudy,0,2013-08-31 13:49:00
9:53 AM,80.1,73.0,79,29.98,10.0,North,6.9,-,0.03,,Mostly Cloudy,360,2013-08-31 13:53:00
10:53 AM,82.9,73.0,72,29.98,10.0,Variable,4.6,-,N/A,,Clear,0,2013-08-31 14:53:00
11:53 AM,84.0,73.0,69,29.99,10.0,SE,4.6,-,N/A,,Clear,140,2013-08-31 15:53:00
12:53 PM,86.0,72.0,63,29.97,10.0,SE,6.9,-,N/A,,Clear,140,2013-08-31 16:53:00
1:53 PM,88.0,71.1,57,29.96,10.0,West,3.5,-,N/A,,Mostly Cloudy,260,2013-08-31 17:53:00
2:53 PM,88.0,73.0,61,29.94,10.0,Variable,5.8,-,N/A,,Scattered Clouds,0,2013-08-31 18:53:00
3:53 PM,88.0,73.9,63,29.92,10.0,West,10.4,-,N/A,,Partly Cloudy,270,2013-08-31 19:53:00
4:53 PM,87.1,73.0,63,29.89,10.0,West,9.2,-,N/A,,Clear,280,2013-08-31 20:53:00
5:53 PM,87.1,73.0,63,29.90,10.0,WNW,8.1,-,N/A,,Partly Cloudy,290,2013-08-31 21:53:00
6:53 PM,87.1,72.0,61,29.90,10.0,West,4.6,-,N/A,,Clear,270,2013-08-31 22:53:00
7:53 PM,86.0,73.9,67,29.91,10.0,West,6.9,-,N/A,,Clear,270,2013-08-31 23:53:00
8:53 PM,84.9,73.0,67,29.92,10.0,West,5.8,-,N/A,,Clear,260,2013-09-01 00:53:00
9:53 PM,84.9,73.9,69,29.96,10.0,Calm,Calm,-,N/A,,Clear,0,2013-09-01 01:53:00
10:53 PM,84.0,73.9,72,29.96,10.0,Calm,Calm,-,N/A,,Clear,0,2013-09-01 02:53:00
11:53 PM,84.0,73.9,72,29.96,10.0,Calm,Calm,-,N/A,,Clear,0,2013-09-01 03:53:00